Time,TemperatureF,DewpointF,PressureIn,WindDirection,WindDirectionDegrees,WindSpeedMPH,WindSpeedGustMPH,Humidity,HourlyPrecipIn,Conditions,Clouds,dailyrainin,SoftwareType,DateUTC
2013-04-06 00:00:00,51.8,50.0,30.12,West,272,1.0,1.0,92,0.00,,,0.01,,2013-04-06 07:00:00,
2013-04-06 00:10:00,51.2,49.0,30.12,West,272,0.0,1.0,91,0.00,,,0.00,,2013-04-06 07:10:00,
2013-04-06 00:20:00,50.3,48.0,30.12,West,272,0.0,0.0,91,0.00,,,0.00,,2013-04-06 07:20:00,
2013-04-06 00:30:00,49.4,47.0,30.12,West,272,1.0,2.0,91,0.00,,,0.00,,2013-04-06 07:30:00,
2013-04-06 00:40:00,48.8,47.0,30.12,West,272,0.0,0.0,92,0.00,,,0.00,,2013-04-06 07:40:00,
2013-04-06 00:50:00,48.3,46.0,30.12,West,272,0.0,1.0,92,0.00,,,0.00,,2013-04-06 07:50:00,
2013-04-06 01:00:00,47.9,46.0,30.12,West,272,0.0,2.0,93,0.00,,,0.00,,2013-04-06 08:00:00,
2013-04-06 01:10:00,47.6,46.0,30.12,West,272,1.0,1.0,93,0.00,,,0.00,,2013-04-06 08:10:00,
2013-04-06 01:20:00,47.3,45.0,30.12,West,272,0.0,1.0,92,0.00,,,0.00,,2013-04-06 08:20:00,
2013-04-06 01:30:00,47.0,45.0,30.12,West,272,0.0,1.0,93,0.00,,,0.00,,2013-04-06 08:30:00,
2013-04-06 01:40:00,48.9,48.0,30.12,SW,224,4.0,5.0,95,0.00,,,0.00,,2013-04-06 08:40:00,
2013-04-06 01:50:00,49.2,48.0,30.12,West,259,0.0,2.0,94,0.00,,,0.00,,2013-04-06 08:50:00,
2013-04-06 02:00:00,48.3,46.0,30.11,West,259,0.0,1.0,93,0.00,,,0.00,,2013-04-06 09:00:00,
2013-04-06 02:10:00,47.5,46.0,30.11,West,259,0.0,2.0,94,0.00,,,0.00,,2013-04-06 09:10:00,
2013-04-06 02:20:00,47.2,46.0,30.10,West,259,1.0,2.0,94,0.00,,,0.00,,2013-04-06 09:20:00,
2013-04-06 02:30:00,47.2,46.0,30.10,West,259,0.0,2.0,94,0.00,,,0.00,,2013-04-06 09:30:00,
2013-04-06 02:40:00,46.5,45.0,30.10,West,259,1.0,2.0,93,0.00,,,0.00,,2013-04-06 09:40:00,
2013-04-06 02:50:00,46.2,45.0,30.10,West,259,0.0,0.0,94,0.00,,,0.00,,2013-04-06 09:50:00,
2013-04-06 03:00:00,46.1,44.0,30.11,West,259,0.0,3.0,94,0.00,,,0.00,,2013-04-06 10:00:00,
2013-04-06 03:10:00,47.6,46.0,30.11,West,263,7.0,8.0,95,0.00,,,0.00,,2013-04-06 10:10:00,
2013-04-06 03:20:00,50.6,50.0,30.10,West,273,3.0,10.0,96,0.00,,,0.00,,2013-04-06 10:20:00,
2013-04-06 03:30:00,50.5,49.0,30.10,WNW,290,4.0,6.0,95,0.00,,,0.00,,2013-04-06 10:30:00,
2013-04-06 03:40:00,50.6,49.0,30.10,WNW,286,0.0,6.0,94,0.00,,,0.00,,2013-04-06 10:40:00,
2013-04-06 03:50:00,50.1,48.0,30.10,WNW,292,3.0,3.0,93,0.00,,,0.00,,2013-04-06 10:50:00,
2013-04-06 04:00:00,49.7,48.0,30.10,WNW,282,3.0,3.0,93,0.00,,,0.00,,2013-04-06 11:00:00,
2013-04-06 04:10:00,48.1,46.0,30.09,WNW,282,0.0,1.0,91,0.00,,,0.00,,2013-04-06 11:10:00,
2013-04-06 04:20:00,47.4,45.0,30.09,WNW,282,0.0,2.0,93,0.00,,,0.00,,2013-04-06 11:20:00,
2013-04-06 04:30:00,47.0,45.0,30.10,WNW,282,0.0,2.0,93,0.00,,,0.00,,2013-04-06 11:30:00,
2013-04-06 04:40:00,46.9,45.0,30.09,WNW,282,0.0,3.0,93,0.00,,,0.00,,2013-04-06 11:40:00,
2013-04-06 04:50:00,46.4,44.0,30.09,WNW,282,0.0,2.0,93,0.00,,,0.00,,2013-04-06 11:50:00,
2013-04-06 05:00:00,46.0,44.0,30.09,WNW,282,0.0,2.0,93,0.00,,,0.00,,2013-04-06 12:00:00,
2013-04-06 05:10:00,45.6,44.0,30.09,WNW,282,0.0,0.0,93,0.00,,,0.00,,2013-04-06 12:10:00,
2013-04-06 05:20:00,45.5,44.0,30.10,WNW,282,0.0,1.0,93,0.00,,,0.00,,2013-04-06 12:20:00,
2013-04-06 05:30:00,44.9,43.0,30.09,WNW,282,0.0,1.0,93,0.00,,,0.00,,2013-04-06 12:30:00,
2013-04-06 05:40:00,44.6,43.0,30.10,WNW,282,0.0,2.0,93,0.00,,,0.00,,2013-04-06 12:40:00,
2013-04-06 05:50:00,44.7,43.0,30.10,WNW,282,0.0,1.0,94,0.00,,,0.00,,2013-04-06 12:50:00,
2013-04-06 06:00:00,44.6,43.0,30.10,WNW,282,0.0,1.0,94,0.00,,,0.00,,2013-04-06 13:00:00,
2013-04-06 06:10:00,44.3,43.0,30.11,WNW,282,0.0,1.0,94,0.00,,,0.00,,2013-04-06 13:10:00,
2013-04-06 06:21:00,44.1,42.0,30.11,WNW,282,0.0,1.0,94,0.00,,,0.00,,2013-04-06 13:21:00,
2013-04-06 06:30:00,43.7,42.0,30.11,WNW,282,0.0,1.0,94,0.00,,,0.00,,2013-04-06 13:30:00,
2013-04-06 06:40:00,43.7,42.0,30.11,WNW,282,0.0,2.0,94,0.00,,,0.00,,2013-04-06 13:40:00,
2013-04-06 06:50:00,43.2,42.0,30.11,WNW,282,0.0,1.0,94,0.00,,,0.00,,2013-04-06 13:50:00,
2013-04-06 07:02:00,43.4,42.0,30.12,WNW,282,0.0,0.0,94,0.00,,,0.00,,2013-04-06 14:02:00,
2013-04-06 07:10:00,44.7,43.0,30.12,WNW,282,1.0,2.0,95,0.00,,,0.00,,2013-04-06 14:10:00,
2013-04-06 07:20:00,44.8,43.0,30.13,WNW,282,0.0,0.0,95,0.00,,,0.00,,2013-04-06 14:20:00,
2013-04-06 07:30:00,46.3,45.0,30.13,WNW,282,0.0,2.0,95,0.00,,,0.00,,2013-04-06 14:30:00,
2013-04-06 07:40:00,47.3,46.0,30.13,WNW,301,0.0,3.0,96,0.00,,,0.00,,2013-04-06 14:40:00,
2013-04-06 07:50:00,48.8,48.0,30.13,WNW,301,1.0,1.0,96,0.00,,,0.00,,2013-04-06 14:50:00,
2013-04-06 08:00:00,50.0,49.0,30.13,WNW,301,0.0,1.0,96,0.00,,,0.00,,2013-04-06 15:00:00,
2013-04-06 08:10:00,51.5,50.0,30.13,WNW,301,0.0,2.0,96,0.00,,,0.00,,2013-04-06 15:10:00,
2013-04-06 08:20:00,53.2,52.0,30.14,WNW,301,0.0,1.0,96,0.00,,,0.00,,2013-04-06 15:20:00,
2013-04-06 08:30:00,55.3,54.0,30.14,SE,142,0.0,3.0,96,0.00,,,0.00,,2013-04-06 15:30:00,
2013-04-06 08:40:00,55.0,53.0,30.14,West,267,2.0,6.0,94,0.00,,,0.00,,2013-04-06 15:40:00,
2013-04-06 08:50:00,56.3,54.0,30.14,WNW,287,0.0,2.0,93,0.00,,,0.00,,2013-04-06 15:50:00,
2013-04-06 09:00:00,58.3,56.0,30.14,WNW,287,0.0,1.0,91,0.00,,,0.00,,2013-04-06 16:00:00,
2013-04-06 09:11:00,61.6,57.0,30.14,WNW,289,0.0,2.0,84,0.00,,,0.00,,2013-04-06 16:11:00,
2013-04-06 09:20:00,64.0,57.0,30.14,NNE,15,2.0,3.0,78,0.00,,,0.00,,2013-04-06 16:20:00,
2013-04-06 09:30:00,66.6,57.0,30.15,NNE,15,1.0,3.0,72,0.00,,,0.00,,2013-04-06 16:30:00,
2013-04-06 09:40:00,65.9,54.0,30.14,East,99,2.0,3.0,66,0.00,,,0.00,,2013-04-06 16:40:00,
2013-04-06 09:50:00,65.2,54.0,30.14,ESE,116,1.0,4.0,66,0.00,,,0.00,,2013-04-06 16:50:00,
2013-04-06 10:00:00,63.8,53.0,30.14,ESE,108,1.0,4.0,68,0.00,,,0.00,,2013-04-06 17:00:00,
2013-04-06 10:10:00,63.9,54.0,30.15,SW,236,4.0,8.0,69,0.00,,,0.00,,2013-04-06 17:10:00,
2013-04-06 10:20:00,61.2,53.0,30.15,WSW,254,12.0,13.0,74,0.00,,,0.00,,2013-04-06 17:20:00,
2013-04-06 10:30:00,60.4,54.0,30.15,West,260,8.0,13.0,79,0.00,,,0.00,,2013-04-06 17:30:00,
2013-04-06 10:40:00,59.8,53.0,30.16,West,267,9.0,13.0,78,0.00,,,0.00,,2013-04-06 17:40:00,
2013-04-06 10:50:00,60.0,53.0,30.16,SW,234,11.0,14.0,78,0.00,,,0.00,,2013-04-06 17:50:00,
2013-04-06 11:00:00,60.3,53.0,30.16,WSW,246,6.0,13.0,76,0.00,,,0.00,,2013-04-06 18:00:00,
2013-04-06 11:10:00,60.2,53.0,30.15,WNW,290,7.0,14.0,76,0.00,,,0.00,,2013-04-06 18:10:00,
2013-04-06 11:20:00,60.1,53.0,30.15,WSW,244,11.0,14.0,78,0.00,,,0.00,,2013-04-06 18:20:00,
2013-04-06 11:30:00,60.0,53.0,30.15,WSW,246,9.0,13.0,78,0.00,,,0.00,,2013-04-06 18:30:00,
2013-04-06 11:40:00,60.7,53.0,30.14,WSW,238,5.0,11.0,75,0.00,,,0.00,,2013-04-06 18:40:00,
2013-04-06 11:50:00,62.1,54.0,30.14,SW,232,3.0,11.0,75,0.00,,,0.00,,2013-04-06 18:50:00,
2013-04-06 12:00:00,64.5,52.0,30.13,West,259,8.0,10.0,65,0.00,,,0.00,,2013-04-06 19:00:00,
2013-04-06 12:10:00,65.0,52.0,30.13,West,275,6.0,9.0,62,0.00,,,0.00,,2013-04-06 19:10:00,
2013-04-06 12:20:00,66.4,52.0,30.12,WSW,255,9.0,13.0,59,0.00,,,0.00,,2013-04-06 19:20:00,
2013-04-06 12:30:00,65.8,54.0,30.13,WSW,258,14.0,14.0,65,0.00,,,0.00,,2013-04-06 19:30:00,
2013-04-06 12:40:00,62.9,53.0,30.12,WSW,251,12.0,17.0,70,0.00,,,0.00,,2013-04-06 19:40:00,
2013-04-06 12:50:00,61.9,52.0,30.12,West,261,15.0,17.0,71,0.00,,,0.00,,2013-04-06 19:50:00,
2013-04-06 13:00:00,62.8,54.0,30.12,SW,234,13.0,17.0,72,0.00,,,0.00,,2013-04-06 20:00:00,
2013-04-06 13:10:00,63.6,54.0,30.13,West,276,11.0,18.0,70,0.00,,,0.00,,2013-04-06 20:10:00,
2013-04-06 13:20:00,63.9,54.0,30.12,WSW,238,5.0,19.0,71,0.00,,,0.00,,2013-04-06 20:20:00,
2013-04-06 13:30:00,65.6,54.0,30.13,WNW,298,9.0,18.0,67,0.00,,,0.00,,2013-04-06 20:30:00,
2013-04-06 13:40:00,65.8,54.0,30.12,WSW,252,11.0,17.0,66,0.00,,,0.00,,2013-04-06 20:40:00,
2013-04-06 13:50:00,65.8,55.0,30.12,NW,304,8.0,18.0,68,0.00,,,0.00,,2013-04-06 20:50:00,
2013-04-06 14:00:00,64.0,53.0,30.11,NW,304,12.0,22.0,67,0.00,,,0.00,,2013-04-06 21:00:00,
2013-04-06 14:10:00,64.6,53.0,30.11,WNW,294,8.0,17.0,66,0.00,,,0.00,,2013-04-06 21:10:00,
2013-04-06 14:22:00,65.3,54.0,30.11,WNW,288,15.0,15.0,68,0.00,,,0.00,,2013-04-06 21:22:00,
2013-04-06 14:31:00,64.7,53.0,30.10,WNW,298,10.0,21.0,67,0.00,,,0.00,,2013-04-06 21:31:00,
2013-04-06 14:40:00,64.8,55.0,30.10,NW,307,6.0,19.0,70,0.00,,,0.00,,2013-04-06 21:40:00,
2013-04-06 14:50:00,63.8,54.0,30.10,NW,306,12.0,20.0,71,0.00,,,0.00,,2013-04-06 21:50:00,
2013-04-06 15:00:00,63.9,54.0,30.10,WNW,288,14.0,18.0,70,0.00,,,0.00,,2013-04-06 22:00:00,
2013-04-06 15:10:00,64.0,54.0,30.10,WNW,295,10.0,20.0,71,0.00,,,0.00,,2013-04-06 22:10:00,
2013-04-06 15:20:00,63.2,54.0,30.09,WNW,292,11.0,18.0,73,0.00,,,0.00,,2013-04-06 22:20:00,
2013-04-06 15:30:00,63.2,55.0,30.09,West,279,12.0,21.0,74,0.00,,,0.00,,2013-04-06 22:30:00,
2013-04-06 15:40:00,62.5,55.0,30.09,WSW,248,12.0,23.0,76,0.00,,,0.00,,2013-04-06 22:40:00,
2013-04-06 15:50:00,62.8,55.0,30.09,NW,310,7.0,23.0,76,0.00,,,0.00,,2013-04-06 22:50:00,
2013-04-06 16:00:00,62.5,56.0,30.08,WSW,238,15.0,22.0,78,0.00,,,0.00,,2013-04-06 23:00:00,
2013-04-06 16:10:00,62.6,55.0,30.08,SW,222,11.0,19.0,76,0.00,,,0.00,,2013-04-06 23:10:00,
2013-04-06 16:20:00,62.4,55.0,30.07,WSW,246,10.0,20.0,77,0.00,,,0.00,,2013-04-06 23:20:00,
2013-04-06 16:30:00,62.0,55.0,30.07,WNW,286,8.0,21.0,77,0.00,,,0.00,,2013-04-06 23:30:00,
2013-04-06 16:40:00,62.0,55.0,30.06,West,270,15.0,22.0,78,0.00,,,0.00,,2013-04-06 23:40:00,
2013-04-06 16:50:00,60.6,54.0,30.06,WNW,300,10.0,16.0,80,0.00,,,0.00,,2013-04-06 23:50:00,
2013-04-06 17:00:00,58.6,54.0,30.06,West,271,9.0,17.0,84,0.00,,,0.00,,2013-04-07 00:00:00,
2013-04-06 17:10:00,57.7,54.0,30.06,WNW,285,13.0,20.0,87,0.00,,,0.00,,2013-04-07 00:10:00,
2013-04-06 17:20:00,57.3,53.0,30.07,NW,313,9.0,24.0,87,0.00,,,0.00,,2013-04-07 00:20:00,
2013-04-06 17:30:00,56.7,54.0,30.07,WNW,283,12.0,22.0,89,0.00,,,0.00,,2013-04-07 00:30:00,
2013-04-06 17:40:00,56.6,54.0,30.06,West,279,15.0,21.0,90,0.00,,,0.00,,2013-04-07 00:40:00,
2013-04-06 17:50:00,56.4,54.0,30.06,West,269,9.0,19.0,90,0.00,,,0.00,,2013-04-07 00:50:00,
2013-04-06 18:00:00,56.2,53.0,30.06,West,281,12.0,19.0,90,0.00,,,0.00,,2013-04-07 01:00:00,
2013-04-06 18:10:00,56.0,53.0,30.06,NW,309,7.0,20.0,90,0.00,,,0.00,,2013-04-07 01:10:00,
2013-04-06 18:20:00,55.7,53.0,30.06,WNW,292,10.0,21.0,91,0.00,,,0.00,,2013-04-07 01:20:00,
2013-04-06 18:30:00,55.5,53.0,30.06,WNW,290,12.0,22.0,91,0.00,,,0.00,,2013-04-07 01:30:00,
2013-04-06 18:40:00,55.4,53.0,30.06,West,260,13.0,19.0,91,0.00,,,0.00,,2013-04-07 01:40:00,
2013-04-06 18:50:00,55.3,53.0,30.05,West,275,9.0,21.0,91,0.00,,,0.00,,2013-04-07 01:50:00,
2013-04-06 19:00:00,55.1,53.0,30.05,WNW,288,9.0,21.0,91,0.00,,,0.00,,2013-04-07 02:00:00,
2013-04-06 19:10:00,54.9,52.0,30.06,WSW,250,12.0,20.0,91,0.00,,,0.00,,2013-04-07 02:10:00,
2013-04-06 19:20:00,54.6,52.0,30.05,West,271,9.0,16.0,91,0.00,,,0.00,,2013-04-07 02:20:00,
2013-04-06 19:30:00,54.2,52.0,30.05,WNW,300,4.0,16.0,92,0.00,,,0.00,,2013-04-07 02:30:00,
2013-04-06 19:40:00,54.1,52.0,30.05,West,275,5.0,16.0,92,0.00,,,0.00,,2013-04-07 02:40:00,
2013-04-06 19:50:00,54.1,52.0,30.06,WNW,285,9.0,17.0,92,0.00,,,0.00,,2013-04-07 02:50:00,
2013-04-06 20:00:00,54.1,52.0,30.06,West,271,10.0,21.0,92,0.00,,,0.00,,2013-04-07 03:00:00,
2013-04-06 20:10:00,54.1,52.0,30.06,WNW,283,7.0,12.0,92,0.00,,,0.00,,2013-04-07 03:10:00,
2013-04-06 20:20:00,54.0,52.0,30.06,WNW,284,5.0,8.0,92,0.00,,,0.00,,2013-04-07 03:20:00,
2013-04-06 20:30:00,54.0,52.0,30.06,WNW,283,4.0,8.0,92,0.00,,,0.00,,2013-04-07 03:30:00,
2013-04-06 20:50:00,54.1,52.0,30.07,West,281,4.0,8.0,92,0.00,,,0.00,,2013-04-07 03:50:00,
2013-04-06 20:55:00,54.0,52.0,30.07,West,277,2.0,3.0,92,0.00,,,0.00,,2013-04-07 03:55:00,
2013-04-06 21:10:00,53.5,51.0,30.07,West,271,2.0,2.0,92,0.00,,,0.00,,2013-04-07 04:10:00,
2013-04-06 21:20:00,53.4,51.0,30.07,West,271,1.0,3.0,92,0.00,,,0.00,,2013-04-07 04:20:00,
2013-04-06 21:30:00,53.4,51.0,30.07,WSW,242,0.0,4.0,93,0.00,,,0.00,,2013-04-07 04:30:00,
2013-04-06 21:40:00,53.1,51.0,30.07,WSW,242,0.0,2.0,93,0.00,,,0.00,,2013-04-07 04:40:00,
2013-04-06 21:50:00,52.4,50.0,30.08,WSW,242,2.0,2.0,92,0.00,,,0.00,,2013-04-07 04:50:00,
2013-04-06 22:00:00,51.5,49.0,30.08,WSW,242,0.0,1.0,92,0.00,,,0.00,,2013-04-07 05:00:00,
2013-04-06 22:10:00,50.8,49.0,30.09,WSW,242,0.0,1.0,92,0.00,,,0.00,,2013-04-07 05:10:00,
2013-04-06 22:20:00,50.3,48.0,30.08,WSW,242,0.0,2.0,92,0.00,,,0.00,,2013-04-07 05:20:00,
2013-04-06 22:30:00,50.1,48.0,30.09,WSW,242,0.0,2.0,93,0.00,,,0.00,,2013-04-07 05:30:00,
2013-04-06 22:40:00,49.7,48.0,30.08,WSW,242,0.0,2.0,93,0.00,,,0.00,,2013-04-07 05:40:00,
2013-04-06 22:50:00,49.5,48.0,30.09,WSW,242,0.0,2.0,93,0.00,,,0.00,,2013-04-07 05:50:00,
2013-04-06 23:00:00,49.4,47.0,30.08,WSW,242,1.0,1.0,93,0.00,,,0.00,,2013-04-07 06:00:00,
2013-04-06 23:10:00,49.4,47.0,30.08,WSW,242,0.0,1.0,93,0.00,,,0.00,,2013-04-07 06:10:00,
2013-04-06 23:20:00,49.2,48.0,30.08,WSW,242,0.0,2.0,94,0.00,,,0.00,,2013-04-07 06:20:00,
2013-04-06 23:30:00,49.2,48.0,30.09,WSW,242,0.0,1.0,94,0.00,,,0.00,,2013-04-07 06:30:00,
2013-04-06 23:40:00,48.7,47.0,30.09,WSW,242,0.0,1.0,93,0.00,,,0.00,,2013-04-07 06:40:00,
2013-04-06 23:50:00,48.3,47.0,30.09,WSW,242,1.0,2.0,94,0.00,,,0.00,,2013-04-07 06:50:00,